Regional Weather Roundup
Issued by NWS

Home | Current Version | Previous Version | Graphics & Text | Print | Product List | Glossary On
Versions: 1 2 3 4 5 6 7 8 9 10 11 12 13 14 15 16 17 18 19 20 21 22 23 24 25 26 27 28 29 30 31 32 33 34 35 36 37 38 39 40 41 42 43 44 45 46 47 48 49 50
000
ASUS45 KPSR 251210
RWRAZ

ARIZONA HOURLY REGIONAL WEATHER ROUNDUP
NATIONAL WEATHER SERVICE PHOENIX AZ
500 AM MST MON SEP 25 2017

NOTE: FAIR INDICATES FEW OR NO CLOUDS BELOW 12,000 FEET WITH NO
SIGNIFICANT WEATHER AND/OR OBSTRUCTIONS TO VISIBILITY.

AZZ001>003-036-251300-
NORTHWEST ARIZONA

CITY           SKY/WX    TMP DP  RH WIND       PRES   REMARKS
BULLHEAD CITY  CLEAR     70  34  26 N22       29.86S
KINGMAN        CLEAR     45  26  47 E7        29.97F
6HR MIN TEMP:  45; 6HR MAX TEMP:  54;

$$

AZZ004>008-015-016-018-251300-
NORTH CENTRAL ARIZONA

CITY           SKY/WX    TMP DP  RH WIND       PRES   REMARKS
GRAND CANYON   PTCLDY    23  13  65 CALM      30.07F
6HR MIN TEMP:  21; 6HR MAX TEMP:  29;

WILLIAMS       PTCLDY    28  14  54 SE6       30.05S WCI  22
PRESCOTT       CLEAR     38  22  52 S8        29.99F WCI  32
6HR MIN TEMP:  38; 6HR MAX TEMP:  50;

FLAGSTAFF      PTCLDY    25  12  58 CALM      30.06S
6HR MIN TEMP:  25; 6HR MAX TEMP:  30;

PAYSON           N/A     52   9  17 N8        29.97S
PAGE           CLEAR     47  28  47 CALM      30.02S
6HR MIN TEMP:  47; 6HR MAX TEMP:  56;

$$

AZZ009>014-017-251300-
NORTHEAST ARIZONA

CITY           SKY/WX    TMP DP  RH WIND       PRES   REMARKS
WINSLOW        PTCLDY    34  12  40 W5        30.02S WCI  30
6HR MIN TEMP:  33; 6HR MAX TEMP:  44;

SAINT JOHNS    CLEAR     34  15  46 CALM      30.00F
6HR MIN TEMP:  34; 6HR MAX TEMP:  45;

WINDOW ROCK    CLEAR     25  13  60 CALM      30.06F
6HR MIN TEMP:  24; 6HR MAX TEMP:  36;

SHOW LOW       CLEAR     37  18  44 CALM      30.04S
$$

AZZ540-542>544-546-548-251300-
GREATER PHOENIX AREA

CITY           SKY/WX    TMP DP  RH WIND       PRES   REMARKS
PHOENIX        CLEAR     65  26  23 CALM      29.77S
6HR MIN TEMP:  65; 6HR MAX TEMP:  73;

BUCKEYE        CLEAR     57  19  23 N6        29.79S
LUKE AFB       CLEAR     58  27  30 CALM      29.77S
6HR MIN TEMP:  58; 6HR MAX TEMP:  72;

DEER VALLEY    CLEAR     58  15  18 CALM      29.78S
6HR MIN TEMP:  57; 6HR MAX TEMP:  68;

SCOTTSDALE     CLEAR     60  31  33 CALM      29.80S
6HR MIN TEMP:  58; 6HR MAX TEMP:  71;

MESA-GATEWAY   CLEAR     54  21  28 E6        29.80S
$$

AZZ539-553-251300-
SOUTHWEST MARICOPA COUNTY AND PINAL COUNTY

CITY           SKY/WX    TMP DP  RH WIND       PRES   REMARKS
CASA GRANDE    NOT AVBL
GILA BEND      FAIR      56  18  22 S6        29.78R
6HR MIN TEMP:  56; 6HR MAX TEMP:  65;

$$

AZZ503-504-507>509-251300-
SOUTHEAST ARIZONA

CITY           SKY/WX    TMP DP  RH WIND       PRES   REMARKS
TUCSON         CLEAR     55  21  26 SE7       29.86F
6HR MIN TEMP:  54; 6HR MAX TEMP:  64;

DAVIS-MONTHAN  CLEAR     54  22  29 SE6       29.84F
6HR MIN TEMP:  53; 6HR MAX TEMP:  64;

NOGALES        CLEAR     47  30  51 CALM      29.90S
6HR MIN TEMP:  47; 6HR MAX TEMP:  59;

SIERRA VISTA   CLEAR     52  28  39 S6        29.94S
6HR MIN TEMP:  52; 6HR MAX TEMP:  60;

DOUGLAS        CLEAR     45  26  47 N5        29.91S
6HR MIN TEMP:  45; 6HR MAX TEMP:  61;

SAFFORD        CLEAR     50  21  32 SE3       29.85R
6HR MIN TEMP:  50; 6HR MAX TEMP:  65;

$$

AZZ532-251300-
SOUTHWEST ARIZONA

CITY           SKY/WX    TMP DP  RH WIND       PRES   REMARKS
YUMA           CLEAR     62  30  29 CALM      29.78S
6HR MIN TEMP:  62; 6HR MAX TEMP:  73;

$$

CAZ041-043-047-048-061-525>527-560>570-251300-
SOUTHERN CALIFORNIA

CITY           SKY/WX    TMP DP  RH WIND       PRES   REMARKS
DOWNTOWN L.A.  CLEAR     63  40  42 CALM      29.82S
6HR MIN TEMP:  62; 6HR MAX TEMP:  70;

L.A. AIRPORT   PTCLDY    64  43  46 CALM      29.82F
6HR MIN TEMP:  62; 6HR MAX TEMP:  73;

SAN DIEGO      CLEAR     63  44  50 N3        29.83F
6HR MIN TEMP:  63; 6HR MAX TEMP:  69;

BURBANK        CLEAR     60  34  37 CALM      29.83F
6HR MIN TEMP:  60; 6HR MAX TEMP:  68;

ONTARIO        PTCLDY    58  32  37 N5        29.84F
6HR MIN TEMP:  58; 6HR MAX TEMP:  68;

RIVERSIDE      PTCLDY    58  41  53 E3        29.85F
6HR MIN TEMP:  57; 6HR MAX TEMP:  66;

PALM SPRINGS   CLEAR     70  22  16 VRB3      29.86S
6HR MIN TEMP:  67; 6HR MAX TEMP:  78;

EL CENTRO NAS  CLEAR     56  23  27 W10       29.82S
6HR MIN TEMP:  56; 6HR MAX TEMP:  69;

IMPERIAL       CLEAR     58  32  37 W9        29.79S
6HR MIN TEMP:  57; 6HR MAX TEMP:  67;

BLYTHE         CLEAR     65  24  21 N10       29.81S
6HR MIN TEMP:  61; 6HR MAX TEMP:  69;

NEEDLES        CLEAR     69  31  24 N15       29.87S
6HR MIN TEMP:  67; 6HR MAX TEMP:  73;

$$

NVZ020-UTZ003-251300-
SOUTHERN NEVADA-UTAH

CITY           SKY/WX    TMP DP  RH WIND       PRES   REMARKS
LAS VEGAS      PTCLDY    57  26  30 S7        29.97S
6HR MIN TEMP:  57; 6HR MAX TEMP:  65;

SALT LAKE CITY PTCLDY    42  41  96 SE5       30.11S
6HR MIN TEMP:  42; 6HR MAX TEMP:  46;

$$

NMZ009-TXZ055-251300-
NEW MEXICO-WEST TEXAS

CITY           SKY/WX    TMP DP  RH WIND       PRES   REMARKS
ALBUQUERQUE    MOCLDY    53  23  31 N6        29.99R
6HR MIN TEMP:  53; 6HR MAX TEMP:  61;

EL PASO        PTCLDY    67  61  81 SE6       29.84R
6HR MIN TEMP:  66; 6HR MAX TEMP:  74;

$$


........................KEY........................
SKY/WX - SKY CONDITION/WEATHER
TMP    - TEMPERATURE IN FAHRENHEIT
DP     - DEW POINT IN FAHRENHEIT
RH     - RELATIVE HUMIDITY IN PERCENT
WIND   - DIRECTION AND SPEED IN MILES PER HOUR (MPH)
VRB    - VARIABLE WIND DIRECTION
PRES   - MEAN SEA LEVEL PRESSURE IN INCHES OF MERCURY
         F - FALLING PRESSURE   R - RISING PRESSURE
         S - STEADY PRESSURE
VSB    - VISIBILITY IN MILES
HX     - HEAT INDEX IN FAHRENHEIT
WCI    - WIND CHILL INDEX IN FAHRENHEIT
TC     - TEMPERATURE IN CELSIUS WHICH IS ALSO KNOWN AS
         TEMPERATURE IN CENTIGRADE
AFB    - AIR FORCE BASE
         LUKE AFB IS LUKE AIR FORCE BASE
         DAVIS-MONTHAN IS DAVIS-MONTHAN AIR FORCE BASE
NAS    - NAVAL AIR STATION
         EL CENTRO NAS IS EL CENTRO NAVAL AIR STATION
N/A    - NOT AVAILABLE




USA.gov is the U.S. government's official web portal to all federal, state and local government web resources and services.